[[{"header":{"parameterUnit":"m.s-1","parameterCategory":1,"la1":30.2992,"la2":30.254,"lo1":-89.0895,"lo2":-89.0443,"dy":0.0025,"dx":0.0025,"nx":19,"ny":19,"refTime":"2026-05-23T09:00:00:Z","depth":0,"parameterNumber":2,"parameterNumberName":"U-component_of_WINDS"},"data":[0,0,0,-1.7078,-1.7081,-1.7201,-1.7201,-1.7354,-1.7355,0,0,0,0,0,0,0,0,0,0,0,-1.7042,-1.7043,-1.7078,-1.7081,-1.7201,-1.7201,-1.7353,-1.7355,0,0,0,0,0,0,0,0,0,0,0,-1.7042,-1.7043,-1.7044,-1.7081,-1.7201,-1.7201,-1.7353,-1.7263,0,0,0,0,0,0,0,0,0,0,-1.7146,-1.7113,-1.7043,-1.7044,-1.7082,-1.7201,-1.7201,-1.7258,-1.7268,-1.7299,0,-1.7326,0,-1.7343,-1.7365,-1.7366,0,0,0,-1.7081,-1.7105,-1.7137,-1.7045,-1.7083,-1.72,-1.7147,-1.7264,-1.7275,-1.7312,-1.7328,-1.7334,-1.7345,-1.7366,-1.7367,-1.7539,-1.754,0,0,-1.7075,-1.7064,-1.713,-1.7145,-1.7127,-1.7143,-1.7151,-1.7271,-1.7288,-1.7329,-1.7337,-1.7348,-1.7367,-1.7368,-1.7539,-1.754,0,0,0,-1.7055,-1.7059,-1.7089,-1.7139,-1.716,-1.7146,-1.7155,-1.7283,-1.7293,-1.7339,-1.735,-1.7368,-1.737,-1.7538,-1.7539,-1.7566,0,0,0,-1.7051,-1.7048,-1.7086,-1.7081,-1.7158,-1.7223,-1.7164,-1.7285,-1.7299,-1.7349,-1.7368,-1.7371,-1.7537,-1.7538,-1.7564,-1.7581,0,0,0,-1.7035,-1.7046,-1.7063,-1.708,-1.7131,-1.7221,-1.7239,-1.7288,-1.7305,-1.7366,-1.7372,-1.7536,-1.7538,-1.7561,-1.7577,-1.7621,0,0,0,-1.7014,-1.7088,-1.7064,-1.715,-1.713,-1.7238,-1.7238,-1.7319,-1.7375,-1.7369,-1.7537,-1.7539,-1.7561,-1.7575,-1.7619,-1.7656,-1.767,0,0,-1.7101,-1.7098,-1.715,-1.7131,-1.724,-1.722,-1.7333,-1.7395,-1.7411,-1.7495,-1.75,-1.7564,-1.7577,-1.7621,-1.7759,-1.7771,0,0,0,-1.7174,-1.721,-1.7242,-1.7293,-1.7341,-1.7383,-1.7428,-1.745,-1.7522,-1.7452,-1.7594,-1.7601,-1.7628,-1.7645,-1.7655,-1.7677,-1.7547,-1.7547,-1.7547,-1.7282,-1.7297,-1.7383,-1.7411,-1.7461,-1.7506,-1.7547,-1.7585,-1.7587,-1.762,-1.7645,-1.7727,-1.7748,-1.7755,-1.7778,-1.7667,-1.7667,-1.7667,-1.7667,-1.741,-1.7463,-1.7462,-1.7544,-1.7559,-1.7629,-1.7674,-1.7672,-1.7738,-1.771,-1.7734,-1.77,-1.7767,-1.7788,-1.7669,-1.7669,-1.7669,-1.7668,-1.7668,-1.7481,-1.7509,-1.7534,-1.7608,-1.7664,-1.7691,-1.7753,-1.7765,-1.7778,-1.7801,-1.7827,-1.7827,-1.7826,-1.7813,-1.7813,-1.7814,-1.7814,-1.7814,-1.7814,-1.7545,-1.7572,-1.7623,-1.7678,-1.7711,-1.7757,-1.78,-1.7833,-1.7873,-1.7877,-1.7877,-1.7874,-1.7772,-1.7744,-1.7819,-1.7818,-1.7817,-1.7817,-1.7817,-1.7667,-1.764,-1.7719,-1.7752,-1.7816,-1.7869,-1.7883,-1.7949,-1.7978,-1.8008,-1.8,-1.7922,-1.792,-1.7912,-1.789,-1.7997,-1.7997,-1.7997,-1.7997,-1.7726,-1.7726,-1.7807,-1.7858,-1.791,-1.793,-1.8017,-1.8051,-1.8082,-1.81,-1.8087,-1.8058,-1.805,-1.8053,-1.8042,-1.8021,-1.8159,-1.8159,-1.816,-1.78,-1.7805,-1.7877,-1.7906,-1.7956,-1.7999,-1.808,-1.8138,-1.8168,-1.8166,-1.8114,-1.8107,-1.8062,-1.8047,-1.8043,-1.8026,-1.7988,0,0]},{"header":{"parameterUnit":"m.s-1","parameterCategory":1,"la1":30.2992,"la2":30.254,"lo1":-89.0895,"lo2":-89.0443,"dy":0.0025,"dx":0.0025,"nx":19,"ny":19,"refTime":"2026-05-23T09:00:00:Z","depth":0,"parameterNumber":3,"parameterNumberName":"V-component_of_WINDS"},"data":[0,0,0,2.0413,2.0416,2.0544,2.0544,2.0713,2.0715,0,0,0,0,0,0,0,0,0,0,0,2.038,2.0381,2.0413,2.0416,2.0544,2.0544,2.0713,2.0715,0,0,0,0,0,0,0,0,0,0,0,2.0379,2.0381,2.0382,2.0417,2.0543,2.0544,2.0713,2.0614,0,0,0,0,0,0,0,0,0,0,2.049,2.0463,2.038,2.0382,2.0418,2.0543,2.0544,2.061,2.0621,2.0658,0,2.0693,0,2.0707,2.0727,2.0727,0,0,0,2.0414,2.0453,2.0484,2.0382,2.0419,2.0543,2.0485,2.0616,2.0628,2.0673,2.0695,2.0702,2.0709,2.0728,2.0729,2.0955,2.0956,0,0,2.0407,2.0405,2.0475,2.0492,2.0473,2.0481,2.0489,2.0623,2.0648,2.0696,2.0705,2.0712,2.0729,2.073,2.0954,2.0955,0,0,0,2.0388,2.04,2.0427,2.0485,2.0508,2.0485,2.0494,2.0642,2.0651,2.0707,2.0714,2.073,2.0732,2.0952,2.0954,2.1011,0,0,0,2.0384,2.0389,2.0424,2.0425,2.0505,2.0576,2.051,2.0641,2.0656,2.0713,2.073,2.0734,2.0951,2.0953,2.1006,2.1039,0,0,0,2.037,2.0388,2.0407,2.0424,2.0479,2.0574,2.0591,2.0645,2.0661,2.0727,2.0734,2.095,2.0953,2.1003,2.1032,2.1098,0,0,0,2.0355,2.0457,2.0408,2.0525,2.0478,2.0608,2.059,2.0687,2.0751,2.0731,2.0951,2.0954,2.1001,2.1028,2.1093,2.1153,2.1177,0,0,2.0483,2.0472,2.0541,2.0501,2.0639,2.0588,2.0735,2.0796,2.0804,2.0904,2.0909,2.1008,2.1032,2.1097,2.1313,2.1332,0,0,0,2.0581,2.063,2.0667,2.0727,2.0775,2.0818,2.0856,2.0878,2.0963,2.0855,2.1049,2.1063,2.1101,2.113,2.1146,2.1179,2.0967,2.0966,2.0966,2.0761,2.0765,2.0878,2.0897,2.0955,2.0991,2.1039,2.1075,2.1063,2.1108,2.1139,2.1269,2.1302,2.1315,2.1349,2.1169,2.1169,2.117,2.117,2.095,2.1021,2.0999,2.1102,2.1104,2.1191,2.1229,2.1217,2.1298,2.1247,2.1281,2.1226,2.1336,2.1366,2.1174,2.1173,2.1173,2.1172,2.1172,2.107,2.1104,2.1128,2.1213,2.1278,2.1293,2.1371,2.1371,2.1371,2.1404,2.1436,2.1435,2.1435,2.1419,2.142,2.142,2.142,2.1421,2.1421,2.1186,2.121,2.1276,2.1332,2.137,2.1419,2.1454,2.1492,2.1533,2.1526,2.1527,2.151,2.1345,2.1305,2.1428,2.1427,2.1426,2.1425,2.1425,2.1379,2.1334,2.1435,2.1472,2.1538,2.1603,2.16,2.1674,2.1705,2.1743,2.1718,2.1596,2.1586,2.1573,2.1539,2.1716,2.1716,2.1716,2.1716,2.1481,2.1474,2.1577,2.1636,2.1694,2.17,2.1814,2.1842,2.1864,2.1883,2.1857,2.1812,2.1798,2.1796,2.1778,2.1747,2.1973,2.1973,2.1973,2.16,2.1598,2.1696,2.1715,2.1766,2.1809,2.1916,2.1985,2.2001,2.1984,2.1898,2.1887,2.1814,2.179,2.1774,2.1746,2.1689,0,0]}]]